Regional Weather Roundup
Issued by NWS

Home | Current Version | Previous Version | Text Only | Print | Product List | Glossary On
Versions: 1 2 3 4 5 6 7 8 9 10 11 12 13 14 15 16 17 18 19 20 21 22 23 24 25 26 27 28 29 30 31 32 33 34 35 36 37 38 39 40 41 42 43 44 45 46 47 48 49 50
157
ASHW40 PHFO 250132
RWRHI

WEATHER ROUNDUP FOR HAWAII
NATIONAL WEATHER SERVICE HONOLULU HI
300 PM HST TUE APR 24 2018

THIS IS AN AUTOMATED REPORT THAT HAS NOT BEEN QUALITY CONTROLLED.

NOTE..."FAIR" INDICATES FEW OR NO CLOUDS BELOW 12,000 FEET WITH NO
SIGNIFICANT WEATHER AND/OR OBSTRUCTIONS TO VISIBILITY.

* - THESE SITES REPORT LIMITED FIELDS
# - BUOY DATA PROVIDED BY PACIFIC ISLANDS OCEAN OBSERVING SYSTEM.

HIZ001>004-250200-
KAUAI-NIIHAU-

CITY           SKY/WX    TMP DP  RH WIND       PRES   REMARKS
LIHUE APT      CLOUDY    78  69  73 NE17      30.11F
PORT ALLEN*      N/A     82 N/A N/A NE22G29     N/A
POIPU*           N/A     79 N/A N/A NE10G21     N/A
PRINCEVILLE*     N/A     75 N/A N/A E12G22      N/A
KOKOLE POINT*  NOT AVBL
MOLOAA DAIRY*    N/A     77  68  73 E3G12       N/A
WAIMEA HTS*    NOT AVBL
PUU OPAE*      NOT AVBL
PUU LUA*       NOT AVBL
MAKAHA RIDGE*    N/A     79  63  57 NW1G8       N/A
$$

HIZ005>011-250200-
OAHU-

CITY           SKY/WX    TMP DP  RH WIND       PRES   REMARKS
HONOLULU       PTSUNNY   81  65  58 E20G31    30.06F
KALAELOA       CLOUDY    80  66  62 NE10G23   30.06F
KANEOHE MCB    CLOUDY    78  69  73 E15G22    30.05F
WHEELER FIELD  CLOUDY    72  68  89 E8        30.08S
BELLOWS*         N/A    N/A N/A N/A NE20G26     N/A
KAHUKU*          N/A    N/A N/A N/A NE10G20     N/A
WHEELER*       NOT AVBL
WAIANAE HARBOR NOT AVBL
DILLINGHAM*    NOT AVBL
KAHUKU TRN*      N/A     70  66  88 W12G28      N/A
KAWAILOA*        N/A     72  66  83 E3G26       N/A
KII*             N/A     73  66  78 NE20G31     N/A
MAKUA RANGE*   NOT AVBL
OAHU FOREST NW NOT AVBL
SCHOFIELD BRK*   N/A     64  57  77 E5          N/A
SCHOFIELD S*   NOT AVBL
WAIANAE VLY*   NOT AVBL
KUAOKALA*      NOT AVBL
HONOULIUULI*   NOT AVBL
MOKUOLOE IS*   NOT AVBL
PALEHUA*       NOT AVBL
WAIAWA PHB*    NOT AVBL
$$

HIZ012>013-250200-
MOLOKAI-

CITY           SKY/WX    TMP DP  RH WIND       PRES   REMARKS
MOLOKAI AIRPT  PTSUNNY   79  68  69 NE20G36   30.06F
KALAUPAPA      NOT AVBL
MAKAPULAPAI*     N/A     77  68  73 E20G32      N/A
MOLOKAI 1*     NOT AVBL
PUU ALII*        N/A     60  60  99 N3G15       N/A
$$

HIZ016-250200-
KAHOOLAWE-

CITY           SKY/WX    TMP DP  RH WIND       PRES   REMARKS
KAHOOLAWE*     NOT AVBL
HAKIOAWA*        N/A     77  69  76 MISG      30.44S
HONOKANAIA*    NOT AVBL
KANELOA*       NOT AVBL
KEALIALALO*    NOT AVBL
LUA MAKIKA*    NOT AVBL
$$

HIZ014>015-250200-
LANAI-

CITY           SKY/WX    TMP DP  RH WIND       PRES   REMARKS
LANAI CITY     CLOUDY    70  68  94 S6        30.09F FOG
LANAI 1*       NOT AVBL
$$

HIZ017>028-250200-
MAUI-

CITY           SKY/WX    TMP DP  RH WIND       PRES   REMARKS
KAHULUI        PTSUNNY   79  69  71 NE22G31   30.04F
KAPALUA-W MAUI LGT RAIN  72  68  88 NE9       30.06
HANA AIRPORT   NOT AVBL
HANA*            N/A     75 N/A N/A E12G17      N/A
HALEAKALA SUMM   N/A     46  45  93 E7          N/A
MAALAEA BAY*     N/A     81 N/A N/A N25G40      N/A
HALEAKALA*     NOT AVBL
KAUPO GAP*     NOT AVBL
KULA 1*          N/A     58  57  97 NW5         N/A
$$

HIZ023>026-250200-
BIG ISLAND OF HAWAII COAST AND LOWER SLOPES-

CITY           SKY/WX    TMP DP  RH WIND       PRES   REMARKS
KAILUA KONA    CLOUDY    82  66  58 W9        29.99F
HILO           PTSUNNY   78  67  68 E15       30.05F
HONOKAA*         N/A     68 N/A N/A VRB1        N/A
KAWAIHAE MWT*    N/A     81 N/A N/A W6          N/A
KAWAIHAE*        N/A     79 N/A N/A W3        29.99F
SOUTH POINT*     N/A     75 N/A N/A N24G35      N/A
UPOLU AIRPORT* NOT AVBL
KAMUELA*       PTCLDY    72  63  73 NE23      30.11S
HAKALAU*         N/A     57  57 100 E6G12       N/A
KALOKO-HONOKO*   N/A     81  68  65 W7        29.98F
PALI 2*          N/A     72  61  68 NE16G24     N/A
KEALAKOMO*       N/A     82  68  61 NE20G26     N/A
KAUPULEHU*     NOT AVBL
KAPAPALA*        N/A     76  65  70 E10G22      N/A
LOWER KAHUKU*    N/A     64  63  94 NE3G12      N/A
PUHE CS*         N/A     81  68  65 W3          N/A
PUHO CS*         N/A     80  69  70 W3          N/A
PTA KEAMUKU*     N/A     70  59  68 N18G26      N/A
WAIKOLOA*      NOT AVBL
$$

HIZ027>028-250200-
BIG ISLAND OF HAWAII INTERIOR AND SUMMMITS-

CITY           SKY/WX    TMP DP  RH WIND       PRES   REMARKS
BRADSHAW FIELD LGT RAIN  57  57 100 W10       30.31S VSB 3/4
MK VISITOR CEN   N/A     48  46  93 SE13        N/A
MAUNA KEA*       N/A     45  14  29 W16         N/A
MAUNA LOA*       N/A     54  39  58 MISG        N/A
MAUNA LOA 1*   NOT AVBL
PTA KIPUKA*      N/A     61  59  94 SE7G15      N/A
PTA RANGE 17*    N/A     61  59  94 SE7G15      N/A
PTA WEST*        N/A     61  59  94 NW7G14      N/A
NENE CABIN*      N/A     54  54 100 E8G18       N/A
AHUMOA*        NOT AVBL
PTA PORTABLE*  NOT AVBL
PUU MALI*        N/A     63  54  72 E18G31      N/A
$$

HIC003-250200-
NORTHWEST ISLANDS-

CITY           SKY/WX    TMP DP  RH WIND       PRES   REMARKS
MIDWAY ISLAND  PTSUNNY   73  66  78 NE13      30.28F
MIDWAY NOS*      N/A     72 N/A N/A MISG      30.27S
FRENCH FRIGATE NOT AVBL
$$

PHZ110>124-180-250200-
BUOY REPORTS

STATION/POSITION TIME  TEMP    WIND        PRES    WAVE   SWELL
                       AIR SEA DIR/SP/G            HT/PER HT/DIR
                 (UTC) (F)     (DEG/KT/KT) (MB)    (FT/S) (FT/D)
BUOY 51001       0110   81 81   70/ 17/ 21 1011.4
BUOY 51101       0050   73 74   60/ 17/ 19 1021.3F   8/11   5
BUOY 51100       NOT AVBL
BUOY 51002       0110   78 78   60/ 14/ 17 1014.6
BUOY 51003       0050   77 79   50/ 17/ 21 1015.7F   8/ 8   5/110
BUOY 51004       0110   77 78   60/ 17/ 21   N/A
WAIMEA BAY#      NOT AVBL
MOKAPU POINT#    0104      76                N/A     8/ 7   2/340
LANAI#           NOT AVBL
BARBERS PT 2#    NOT AVBL
PAUWELA#         0100      75                N/A     9/13   3/330
HILO#            0057      77                N/A     7/ 8   3/330
KANEOHE BAY#     NOT AVBL
KANEOHE BAY 2#   NOT AVBL
HANALEI#         0052      77                N/A     8/12   3/320
KAHULUI HARBOR   0100   75 77   50/ 20/ 26 1017.4
HONOLULU HARBOR  0100   77 77   60/  4/ 11 1017.3
PEARL HARBOR#    0030      77                N/A     2/ 9   2/170
KILO NALU        NOT AVBL
HILO HARBOR      0100   81 77   70/  5/  9 1017.1
MOKUOLOE         0036   76 78   70/ 11/ 17 1018.5F
NAWILIWILI       0100   76 78   40/ 11/ 17 1019.1
WHOTS BUOY       NOT AVBL
BUOY 51028       NOT AVBL
$$

......................KEY........................................
  SKY/WX - SKY CONDITIONS/PRESENT WEATHER
  TMP    - TEMPERATURE IN FAHRENHEIT
  DWPT   - DEWPOINT IN FAHRENHEIT
  RH     - RELATIVE HUMIDITY IN PERCENT
  WIND   - DIRECTION AND SPEED /MPH FOR ISLANDS...KTS FOR BUOYS/
  PRES   - MEAN SEA LEVEL PRESSURE IN INCHES OF HG
  VSB    - VISIBILITY IN MILES
  HX     - HEAT INDEX
  WCI    - WIND CHILL INDEX
  VRB    - VARIABLE WIND DIRECTION
  N/A    - NOT AVAILABLE




USA.gov is the U.S. government's official web portal to all federal, state and local government web resources and services.